KW1M Weather Reports


time (UTC)temp
C
wind
direction
speed
KPH
gust
KPH
rain 1hr
cm
rain 24hr
cm
rain mn
cm
humidity
%
barometer
mb
20260507040040 8 207 0.0 1.6 0.10 0.76 0.00 97 1007.0
20260507034539 8 208 0.0 3.2 0.15 0.76 0.76 97 1006.7
20260507033041 8 209 0.0 3.2 0.20 0.76 0.76 96 1006.8
20260507031537 8 211 0.0 4.8 0.18 0.71 0.71 96 1006.7
20260507030024 9 208 0.0 4.8 0.10 0.66 0.66 96 1006.8
20260507024521 10 216 0.0 6.4 0.10 0.61 0.61 96 1006.5
20260507023016 10 187 0.0 6.4 0.18 0.56 0.56 96 1006.5
20260507021513 11 186 0.0 6.4 0.23 0.56 0.56 97 1006.2
20260507020010 11 188 0.0 4.8 0.23 0.56 0.56 97 1005.8
20260507014509 12 188 0.0 1.6 0.18 0.51 0.51 97 1005.8
20260507013003 13 188 1.6 12.9 0.05 0.38 0.38 97 1005.5
20260507011504 13 132 1.6 12.9 0.00 0.33 0.33 97 1005.2
20260507010003 13 158 3.2 14.5 0.00 0.33 0.33 97 1005.2
20260507004500 13 188 1.6 12.9 0.00 0.33 0.33 97 1005.2
20260507003113 13 186 0.0 14.5 0.00 0.33 0.33 97 1005.1
20260507001605 13 142 1.6 9.7 0.00 0.33 0.33 97 1005.1
20260507000059 13 187 3.2 19.3 0.00 0.33 0.33 97 1004.8
20260506234606 13 156 3.2 14.5 0.00 0.33 0.33 97 1004.8
20260506233059 13 120 0.0 11.3 0.00 0.33 0.33 97 1004.8
20260506231556 13 150 4.8 22.5 0.00 0.33 0.33 97 1004.8
20260506224559 14 139 4.8 20.9 0.00 0.33 0.33 96 1004.7
20260506223053 14 184 4.8 20.9 0.00 0.33 0.33 96 1004.8
20260506221551 14 150 6.4 25.7 0.00 0.33 0.33 96 1004.8
20260506220053 14 113 8.0 30.6 0.00 0.33 0.33 96 1005.0
20260506214549 14 127 6.4 25.7 0.00 0.33 0.33 96 1004.9
20260506213047 14 117 4.8 27.4 0.00 0.33 0.33 96 1005.0
20260506211547 15 143 4.8 17.7 0.03 0.33 0.33 96 1005.1
20260506210045 15 117 3.2 25.7 0.08 0.33 0.33 96 1005.1
20260506204544 15 146 4.8 17.7 0.10 0.33 0.33 96 1005.2
20260506203043 15 173 4.8 22.5 0.13 0.33 0.33 96 1005.2
20260506201541 15 165 8.0 22.5 0.13 0.30 0.30 95 1005.5
20260506200041 15 120 6.4 22.5 0.08 0.25 0.25 95 1005.5
20260506194538 15 148 1.6 17.7 0.05 0.23 0.23 94 1005.8
20260506193042 15 111 4.8 9.7 0.05 0.20 0.20 94 1005.8
20260506191537 15 115 0.0 12.9 0.03 0.18 0.18 94 1005.6
20260506190039 15 127 0.0 11.3 0.08 0.18 0.18 94 1005.9
20260506184538 15 129 0.0 8.0 0.10 0.18 0.18 93 1006.2
20260506183029 15 128 3.2 14.5 0.13 0.15 0.15 92 1006.7
20260506181528 15 170 3.2 12.9 0.15 0.15 0.15 91 1006.7
20260506180030 15 159 6.4 19.3 0.10 0.10 0.10 89 1007.0
20260506174526 16 187 6.4 27.4 0.08 0.08 0.08 84 1007.0
20260506173031 17 138 11.3 22.5 0.00 0.00 0.00 79 1007.0
20260506171527 18 187 3.2 16.1 0.00 0.00 0.00 74 1006.7
20260506170022 18 122 4.8 14.5 0.00 0.00 0.00 72 1006.6
20260506164523 18 162 8.0 25.7 0.00 0.00 0.00 72 1006.7
20260506163028 18 127 9.7 20.9 0.00 0.00 0.00 72 1007.0
20260506161520 18 99 6.4 19.3 0.00 0.00 0.00 72 1007.1
20260506160017 18 157 0.0 12.9 0.00 0.00 0.00 74 1007.4
20260506154514 18 187 1.6 19.3 0.00 0.00 0.00 74 1007.9
20260506153012 18 158 4.8 20.9 0.00 0.00 0.00 75 1008.0
20260506151510 18 167 4.8 20.9 0.00 0.00 0.00 76 1008.3
20260506150009 17 173 0.0 14.5 0.00 0.00 0.00 77 1008.2
20260506144509 17 140 3.2 22.5 0.00 0.00 0.00 77 1008.4
20260506143008 17 169 1.6 17.7 0.00 0.00 0.00 78 1008.0
20260506141504 17 152 1.6 14.5 0.00 0.00 0.00 79 1008.1
20260506140002 16 113 1.6 11.3 0.00 0.00 0.00 82 1008.0
20260506134600 16 120 8.0 17.7 0.00 0.00 0.00 82 1008.3
20260506133100 16 156 1.6 12.9 0.00 0.00 0.00 83 1008.3
20260506131602 15 138 3.2 12.9 0.00 0.00 0.00 83 1008.5
20260506130131 15 176 6.4 17.7 0.00 0.00 0.00 83 1008.5
20260506124601 15 141 8.0 17.7 0.00 0.00 0.00 83 1008.6
20260506123056 15 167 4.8 11.3 0.00 0.00 0.00 83 1008.4
20260506121553 15 131 3.2 17.7 0.00 0.00 0.00 84 1008.4
20260506120052 15 155 3.2 16.1 0.00 0.00 0.00 84 1008.7
20260506114551 14 152 3.2 20.9 0.00 0.00 0.00 84 1008.6
20260506113056 14 148 3.2 16.1 0.00 0.00 0.00 85 1008.9
20260506111549 14 100 0.0 17.7 0.00 0.00 0.00 85 1008.9
20260506110055 13 114 1.6 12.9 0.00 0.00 0.00 85 1009.0
20260506104553 13 137 1.6 14.5 0.00 0.00 0.00 85 1009.3
20260506103055 13 129 0.0 12.9 0.00 0.00 0.00 85 1009.1
20260506101555 13 129 1.6 12.9 0.00 0.00 0.00 85 1008.9
20260506100101 13 136 3.2 17.7 0.00 0.00 0.00 84 1008.8
20260506094542 13 169 0.0 12.9 0.00 0.00 0.00 83 1008.9
20260506093045 13 127 3.2 16.1 0.00 0.00 0.00 82 1008.9
20260506091540 13 129 1.6 12.9 0.00 0.00 0.00 81 1008.8
20260506090037 13 115 0.0 9.7 0.00 0.00 0.00 80 1008.9
20260506084554 13 132 0.0 8.0 0.00 0.00 0.00 79 1009.0
20260506083035 13 107 0.0 3.2 0.00 0.00 0.00 79 1009.0
20260506081540 14 184 0.0 8.0 0.00 0.00 0.00 78 1009.0
20260506073038 15 117 0.0 4.8 0.00 0.00 0.00 75 1009.0
20260506071525 15 148 1.6 9.7 0.00 0.00 0.00 74 1008.9
20260506061519 15 162 3.2 11.3 0.00 0.00 0.00 72 1008.6
20260506044528 16 117 0.0 11.3 0.00 0.00 0.00 71 1008.8
20260506043009 16 87 0.0 14.5 0.00 0.00 0.00 70 1008.9
20260506041505 16 132 1.6 12.9 0.00 0.00 0.00 70 1008.8